TimeEDT,TemperatureF,Dew PointF,Humidity,Sea Level PressureIn,VisibilityMPH,Wind Direction,Wind SpeedMPH,Gust SpeedMPH,PrecipitationIn,Events,Conditions,WindDirDegrees,DateUTC
12:02 AM,80.6,77.0,89,29.75,10.0,SSE,6.9,-,N/A,,Scattered Clouds,160,2012-10-02 04:02:00
12:05 AM,80.6,77.0,89,29.75,10.0,SSE,8.1,-,N/A,,Mostly Cloudy,160,2012-10-02 04:05:00
12:07 AM,80.6,77.0,89,29.75,10.0,SSE,8.1,-,N/A,,Scattered Clouds,150,2012-10-02 04:07:00
12:55 AM,79.7,76.6,90,29.75,10.0,SSE,8.1,-,N/A,,Partly Cloudy,160,2012-10-02 04:55:00
1:55 AM,78.8,75.7,90,29.75,10.0,SSE,4.6,-,N/A,,Clear,160,2012-10-02 05:55:00
2:55 AM,78.3,76.1,93,29.75,10.0,South,5.8,-,N/A,,Clear,170,2012-10-02 06:55:00
3:55 AM,77.9,74.7,90,29.76,10.0,South,6.9,-,N/A,,Clear,190,2012-10-02 07:55:00
4:55 AM,77.4,73.6,88,29.76,10.0,South,4.6,-,N/A,,Clear,190,2012-10-02 08:55:00
5:55 AM,76.6,73.2,89,29.78,10.0,SSW,4.6,-,N/A,,Clear,210,2012-10-02 09:55:00
6:55 AM,76.5,73.0,89,29.79,10.0,SSW,5.8,-,N/A,,Clear,200,2012-10-02 10:55:00
7:55 AM,77.0,73.6,89,29.81,10.0,South,3.5,-,N/A,,Clear,180,2012-10-02 11:55:00
8:55 AM,79.9,74.5,83,29.83,10.0,Variable,6.9,-,N/A,,Clear,0,2012-10-02 12:55:00
9:41 AM,82.4,75.2,79,29.84,10.0,SSW,13.8,17.3,N/A,,Mostly Cloudy,200,2012-10-02 13:41:00
9:55 AM,81.9,74.5,78,29.84,10.0,SSW,9.2,-,N/A,,Mostly Cloudy,210,2012-10-02 13:55:00
10:44 AM,82.4,75.2,79,29.85,10.0,SW,13.8,-,N/A,,Mostly Cloudy,230,2012-10-02 14:44:00
10:45 AM,82.4,75.2,79,29.85,10.0,SW,13.8,-,N/A,,Mostly Cloudy,230,2012-10-02 14:45:00
10:50 AM,82.4,75.2,79,29.86,10.0,SW,16.1,21.9,N/A,,Mostly Cloudy,230,2012-10-02 14:50:00
10:55 AM,81.7,74.5,79,29.86,10.0,SW,12.7,21.9,N/A,,Mostly Cloudy,220,2012-10-02 14:55:00
11:10 AM,82.4,75.2,79,29.86,10.0,SW,9.2,-,N/A,,Mostly Cloudy,230,2012-10-02 15:10:00
11:12 AM,82.4,75.2,79,29.86,10.0,WSW,8.1,-,N/A,,Mostly Cloudy,240,2012-10-02 15:12:00
11:55 AM,83.5,74.3,74,29.86,10.0,SSW,8.1,-,N/A,,Scattered Clouds,200,2012-10-02 15:55:00
12:18 PM,82.4,73.4,74,29.88,8.0,West,10.4,23.0,N/A,,Mostly Cloudy,270,2012-10-02 16:18:00
12:21 PM,80.6,71.6,74,29.88,3.0,WNW,9.2,-,N/A,Rain,Light Rain,290,2012-10-02 16:21:00
12:22 PM,80.6,71.6,74,29.88,2.5,Variable,6.9,-,N/A,Rain,Light Rain,0,2012-10-02 16:22:00
12:23 PM,78.8,71.6,78,29.88,1.8,Variable,4.6,-,N/A,Rain,Light Rain,0,2012-10-02 16:23:00
12:24 PM,78.8,71.6,78,29.88,1.2,West,4.6,-,N/A,Rain,Light Rain,260,2012-10-02 16:24:00
12:25 PM,78.8,71.6,78,29.88,1.0,WSW,3.5,-,N/A,Rain,Light Rain,250,2012-10-02 16:25:00
12:27 PM,77.0,71.6,83,29.88,0.8,West,3.5,-,N/A,Rain,Light Rain,280,2012-10-02 16:27:00
12:29 PM,75.2,71.6,89,29.88,1.0,Calm,Calm,-,N/A,Rain,Heavy Rain,0,2012-10-02 16:29:00
12:33 PM,75.2,71.6,89,29.88,1.2,Calm,Calm,-,N/A,Rain,Heavy Rain,0,2012-10-02 16:33:00
12:34 PM,75.2,71.6,89,29.88,1.5,Calm,Calm,-,N/A,Rain,Heavy Rain,0,2012-10-02 16:34:00
12:35 PM,73.4,71.6,94,29.88,2.0,Calm,Calm,-,N/A,Rain,Heavy Rain,0,2012-10-02 16:35:00
12:36 PM,73.4,71.6,94,29.88,3.0,Calm,Calm,-,N/A,Rain,Heavy Rain,0,2012-10-02 16:36:00
12:37 PM,73.4,71.6,94,29.88,4.0,Calm,Calm,-,N/A,Rain,Light Rain,0,2012-10-02 16:37:00
12:40 PM,73.4,71.6,94,29.88,5.0,Calm,Calm,-,N/A,Rain,Light Rain,0,2012-10-02 16:40:00
12:41 PM,73.4,71.6,94,29.87,5.0,Calm,Calm,-,N/A,Rain,Light Rain,0,2012-10-02 16:41:00
12:42 PM,73.4,71.6,94,29.87,7.0,Calm,Calm,-,N/A,Rain,Light Rain,0,2012-10-02 16:42:00
12:46 PM,73.4,71.6,94,29.86,10.0,Calm,Calm,-,N/A,Rain,Light Rain,0,2012-10-02 16:46:00
12:55 PM,75.2,73.4,94,29.86,10.0,Calm,Calm,-,0.17,Rain,Light Rain,0,2012-10-02 16:55:00
12:56 PM,75.2,73.4,94,29.86,10.0,Calm,Calm,-,N/A,,Scattered Clouds,0,2012-10-02 16:56:00
1:55 PM,81.3,74.1,79,29.86,10.0,South,5.8,-,N/A,,Scattered Clouds,190,2012-10-02 17:55:00
2:55 PM,83.5,73.0,71,29.85,10.0,South,6.9,-,N/A,,Mostly Cloudy,190,2012-10-02 18:55:00
3:55 PM,82.9,73.4,73,29.85,10.0,SSW,8.1,-,N/A,,Mostly Cloudy,200,2012-10-02 19:55:00
4:36 PM,82.4,73.4,74,29.85,10.0,SW,6.9,-,N/A,,Light Drizzle,230,2012-10-02 20:36:00
4:52 PM,78.8,75.2,89,29.86,4.0,South,6.9,-,N/A,Rain,Light Rain,180,2012-10-02 20:52:00
4:54 PM,78.8,75.2,89,29.86,2.5,South,9.2,-,N/A,Rain,Heavy Rain,180,2012-10-02 20:54:00
4:55 PM,78.1,74.5,89,29.86,2.0,South,9.2,-,0.16,Rain,Heavy Rain,180,2012-10-02 20:55:00
4:56 PM,77.0,75.2,94,29.87,1.5,South,8.1,-,N/A,Rain,Heavy Rain,180,2012-10-02 20:56:00
5:01 PM,77.0,75.2,94,29.87,1.8,South,8.1,-,N/A,Rain,Heavy Rain,180,2012-10-02 21:01:00
5:03 PM,77.0,75.2,94,29.87,2.0,South,9.2,-,N/A,Rain,Heavy Rain,170,2012-10-02 21:03:00
5:05 PM,77.0,75.2,94,29.88,3.0,South,6.9,-,N/A,Rain,Light Rain,170,2012-10-02 21:05:00
5:30 PM,77.0,77.0,100,29.88,10.0,South,3.5,-,N/A,,Mostly Cloudy,180,2012-10-02 21:30:00
5:33 PM,77.0,75.2,94,29.88,10.0,Calm,Calm,-,N/A,,Scattered Clouds,0,2012-10-02 21:33:00
5:43 PM,77.0,75.2,94,29.88,10.0,Calm,Calm,-,N/A,,Partly Cloudy,0,2012-10-02 21:43:00
5:46 PM,77.0,75.2,94,29.88,10.0,Calm,Calm,-,N/A,,Light Drizzle,0,2012-10-02 21:46:00
5:55 PM,77.9,75.4,92,29.87,10.0,SSE,3.5,-,0.20,,Light Drizzle,150,2012-10-02 21:55:00
6:01 PM,78.8,75.2,89,29.88,10.0,SSE,4.6,-,N/A,,Clear,150,2012-10-02 22:01:00
6:55 PM,78.3,76.1,93,29.89,10.0,Calm,Calm,-,0.00,,Scattered Clouds,0,2012-10-02 22:55:00
7:55 PM,76.8,75.2,95,29.91,10.0,SSE,3.5,-,N/A,,Mostly Cloudy,150,2012-10-02 23:55:00
8:55 PM,75.9,74.1,94,29.93,10.0,SE,3.5,-,N/A,,Scattered Clouds,140,2012-10-03 00:55:00
9:55 PM,75.7,73.9,94,29.95,10.0,Calm,Calm,-,N/A,,Partly Cloudy,0,2012-10-03 01:55:00
10:55 PM,76.3,74.5,94,29.97,10.0,Calm,Calm,-,N/A,,Mostly Cloudy,0,2012-10-03 02:55:00
11:55 PM,77.4,74.8,92,29.99,10.0,Calm,Calm,-,N/A,,Mostly Cloudy,0,2012-10-03 03:55:00